Home > Weather > Hyderabad > Past weeks

Flag for India Weather for the Past 2 Weeks in Hyderabad, Telangana, India

Now
75 °F

Broken clouds.


Feels Like: 77 °F
Forecast: 74 / 98 °F
Wind: 6 mph from Southeast

Location: Hyderabad Airport

Current Time: May 6, 2016 at 9:54:38 AM

Latest Report: May 6, 2016 at 9:30 AM


Visibility: 3 mi

Pressure: 30.01 "Hg (28.31 "Hg at 507m altitude)

Humidity: 74%

Dew Point: 66 °F

Location of HyderabadLocation

Historic Weather in Hyderabad — Graph

°F

Hyderabad Temperature Yesterday

Maximum temperature yesterday: 100 °F (at 3:30 PM)
Minimum temperature yesterday: 73 °F (at 6:00 AM)
Average temperature yesterday: 90 °F

High & Low Weather Summary for the Past Weeks

 TemperatureHumidityPressure
High113 °F (Apr 25, 3:00 PM)88% (May 6, 6:00 AM)30.12 "Hg (May 6, 6:00 AM)
Low66 °F (May 6, 6:00 AM)9% (Apr 25, 4:00 PM)29.68 "Hg (Apr 24, 4:00 PM)
Average97 °F29%29.85 "Hg
* Reported Apr 21 9:00 AM — May 6 8:30 AM, Hyderabad, Weather by CustomWeather, © 2016

Note: Actual official high and low records may vary slightly from our data, if they occured in-between our weather recording intervals... More about our weather records

Advertising

Hyderabad Weather History for the Previous 24 Hours

Scroll right to see more
 ConditionsComfort  
Time TempWeatherWind HumidityBarometerVisibility
8:30 AM
Fri, May 6
72 °FBroken clouds.7 mph83%30.01 "Hg2 mi
8:00 AM70 °FBroken clouds.7 mph83%30.01 "Hg2 mi
7:30 AM68 °FBroken clouds.9 mph88%29.98 "Hg2 mi
7:00 AM68 °FThunderstorms. More clouds than sun.7 mph88%29.95 "Hg2 mi
6:30 AM68 °FThunderstorms. More clouds than sun.7 mph88%29.95 "Hg2 mi
6:00 AM66 °FThunderstorms. Mostly cloudy.9 mph88%29.98 "Hg2 mi
9:30 PM
Thu, May 5
86 °FHaze.5 mph49%29.89 "Hg3 mi
9:00 PM86 °FHaze.3 mph49%29.86 "Hg3 mi
8:30 PM88 °FHaze.3 mph49%29.86 "Hg3 mi
8:00 PM88 °FHaze.7 mph49%29.83 "Hg3 mi
7:30 PM90 °FHaze.5 mph43%29.83 "Hg3 mi
7:00 PM90 °FHaze.5 mph43%29.83 "Hg3 mi
6:30 PM91 °FClear.5 mph41%29.83 "Hg4 mi
6:00 PM93 °FClear.5 mph39%29.80 "Hg4 mi
5:30 PM95 °FClear.7 mph36%29.80 "Hg4 mi
5:00 PM99 °FClear.9 mph35%29.80 "Hg4 mi
4:00 PM100 °FClear.5 mph31%29.83 "Hg4 mi
3:30 PM100 °FClear.7 mph33%29.83 "Hg4 mi
3:00 PM99 °FClear.7 mph33%29.83 "Hg4 mi
2:30 PM99 °FClear.7 mph37%29.86 "Hg4 mi
2:00 PM99 °FClear.7 mph37%29.86 "Hg4 mi
1:30 PM99 °FClear.7 mph35%29.89 "Hg4 mi
1:00 PM97 °FClear.6 mph37%29.92 "Hg4 mi
12:30 PM95 °FClear.6 mph41%29.95 "Hg4 mi
12:00 PM91 °FClear.7 mph44%29.95 "Hg4 mi
11:30 AM91 °FClear.6 mph44%29.98 "Hg4 mi
11:00 AM90 °FClear.6 mph46%29.98 "Hg4 mi
10:30 AM88 °FScattered clouds.7 mph49%29.98 "Hg3 mi
10:00 AM88 °FScattered clouds.9 mph49%29.98 "Hg3 mi
9:30 AM88 °FScattered clouds.7 mph46%29.98 "Hg3 mi
9:00 AM86 °FHaze.6 mph49%29.98 "Hg3 mi
Weather by CustomWeather, © 2016

See weather overviewHow to use our weather pages